This demonstration page uses our WeatherBlox Daily Observations layout. Learn more.

Left ArrowRight Arrow

39.12711, -84.51439

Hourly Observations for October 14, 2016

Temp ( °F °C ) Dew Point ( °F °C ) Humidity (%) Winds ( mph kmh ) Pressure ( in mb ) Visibility ( mi km ) Precip ( " mm )
12:04 am 00:04 Clear with Mist and Fog 43 6 43 6 100 100 Calm 30.30 1026 2 2 0.00 0.00
12:13 am 00:13 Clear with Mist and Fog 43 6.1 43 6.1 100 100 Calm 30.30 1026 1 1 0.00 0.00
12:25 am 00:25 Clear with Mist and Fog 44 6.7 44 6.7 100 100 Calm 30.30 1026 1 2 0.00 0.00
12:40 am 00:40 Clear with Mist and Fog 45 7 45 7 100 100 Calm 30.30 1026 3 5 0.00 0.00
12:53 am 00:53 Clear 42 5.6 42 5.6 100 100 Calm 30.31 1026 7 11 0.00 0.00
1:01 am 01:01 Clear with Mist and Fog 40 4.4 40 4.4 100 100 Calm 30.30 1026 1 1 0.00 0.00
1:10 am 01:10 Clear with Mist and Fog 41 5 41 5 100 100 Calm 30.30 1026 3 5 0.00 0.00
1:53 am 01:53 Clear with Mist and Fog 43 6.1 43 6.1 100 100 Calm 30.31 1026 3 5 0.00 0.00
1:58 am 01:58 Clear with Mist and Fog 43 6 43 6 100 100 Calm 30.30 1026 2 3 0.00 0.00
2:08 am 02:08 Clear with Mist and Fog 43 6 43 6 100 100 Calm 30.33 1027 4 6 0.00 0.00
2:53 am 02:53 Clear 42 5.6 42 5.6 100 100 NE 3 6 30.32 1027 8 13 0.00 0.00
3:19 am 03:19 Mostly Clear with Mist and Fog 41 5 41 5 100 100 NE 5 7 30.33 1027 2 3 0.00 0.00
3:29 am 03:29 Mostly Clear with Mist and Fog 42 5.6 42 5.6 100 100 NE 3 6 30.33 1027 3 5 0.00 0.00
3:53 am 03:53 Clear 42 5.6 42 5.6 100 100 NNE 3 6 30.32 1027 8 13 0.00 0.00
4:43 am 04:43 Clear with Mist and Fog 40 4.4 40 4.4 100 100 NE 3 6 30.30 1026 2 2 0.00 0.00
4:53 am 04:53 Clear with Mist and Fog 40 4.4 40 4.4 100 100 NE 3 6 30.31 1027 2 2 0.00 0.00
5:11 am 05:11 Clear with Mist and Fog 41 5 41 5 100 100 NE 3 6 30.30 1026 3 5 0.00 0.00
5:18 am 05:18 Clear with Mist and Fog 41 5 41 5 100 100 Calm 30.30 1026 2 2 0.00 0.00
5:42 am 05:42 Clear with Fog 39 4 39 4 100 100 Calm 30.30 1026 1 1 0.00 0.00
5:53 am 05:53 Clear with Mist and Fog 41 5 41 5 100 100 Calm 30.31 1027 1 2 0.00 0.00
6:20 am 06:20 Clear with Mist and Fog 39 4 39 4 100 100 Calm 30.30 1026 4 6 0.00 0.00
6:37 am 06:37 Clear with Mist and Fog 39 3.9 39 3.9 100 100 Calm 30.33 1027 2 2 0.00 0.00
6:46 am 06:46 Clear with Mist and Fog 39 4 39 4 100 100 NE 3 6 30.33 1027 3 5 0.00 0.00
6:53 am 06:53 Clear 39 3.9 39 3.9 100 100 Calm 30.33 1027 8 13 0.00 0.00
7:53 am 07:53 Sunny with Patchy Fog 41 5 41 5 100 100 Calm 30.34 1027 10 16 0.00 0.00
8:53 am 08:53 Sunny 44 6.7 44 6.7 100 100 NE 3 6 30.33 1027 10 16 0.00 0.00
9:53 am 09:53 Sunny 49 9.4 47 8.3 93 93 NNE 8 13 30.33 1027 10 16 0.00 0.00
10:53 am 10:53 Sunny 54 12.2 49 9.4 83 83 NNE 6 9 30.34 1027 10 16 0.00 0.00
11:53 am 11:53 Sunny 59 15 50 10 72 72 NE 7 11 30.32 1027 10 16 0.00 0.00
12:53 pm 12:53 Sunny 63 17.2 49 9.4 60 60 ESE 8 13 30.31 1026 10 16 0.00 0.00
1:53 pm 13:53 Sunny 64 17.8 49 9.4 58 58 E 7 11 30.27 1025 10 16 0.00 0.00
2:53 pm 14:53 Sunny 64 17.8 50 10 60 60 ESE 7 11 30.25 1024 10 16 0.00 0.00
3:53 pm 15:53 Sunny 64 17.8 49 9.4 58 58 E 6 9 30.24 1024 10 16 0.00 0.00
4:53 pm 16:53 Sunny 64 17.8 50 10 60 60 E 5 7 30.25 1024 10 16 0.00 0.00
5:53 pm 17:53 Sunny 62 16.7 49 9.4 62 62 ESE 3 6 30.24 1024 10 16 0.00 0.00
6:53 pm 18:53 Sunny 56 13.3 52 11.1 87 87 E 3 6 30.24 1024 10 16 0.00 0.00
7:53 pm 19:53 Clear 54 12.2 52 11.1 93 93 ENE 3 6 30.23 1024 10 16 0.00 0.00
8:53 pm 20:53 Clear 53 11.7 52 11.1 96 96 Calm 30.24 1024 10 16 0.00 0.00
9:53 pm 21:53 Clear 51 10.6 51 10.6 100 100 Calm 30.25 1024 10 16 0.00 0.00
10:53 pm 22:53 Clear 50 10 50 10 100 100 Calm 30.25 1024 10 16 0.00 0.00
11:53 pm 23:53 Clear 49 9.4 49 9.4 100 100 Calm 30.23 1024 9 14 0.00 0.00

Powered by AerisWeather